SCP
0 0 0 0 0 0 0 0 -0 0 0 0 0 0 0 0 0 1 0 0 0 0 0 0 0 0 -0 -0 -0 -0 -0 -0 -0 -0 -0 -0 -0 -0 0 0 0 0 0 0 0 0 0 0 -0
0 0 0 0 0 0 0 0 0 0 0 0 0 0 0 0 0 0 -0 0 0 0 0 0 0 0 -0 -0 -0 -0 -0 -0 -0 -0 -0 -0 -0 -0 0 0 0 0 0 0 0 0 -0 -0 -0
0 0 0 0 0 0 0 0 0 0 0 0 0 0 0 0 0 0 0 0 -0 0 0 0 0 0 0 0 -0 -0 -0 -0 -0 -0 -0 -0 -0 -0 -0 -0 -0 0 0 0 0 -0 -0 -0 -0
0 0 0 0 0 0 0 0 0 0 0 0 0 0 0 0 0 0 0 0 -0 0 0 0 0 0 0 0 0 0 -0 -0 -0 -0 -0 0 -0 -0 -0 -0 -0 -0 -0 -0 -0 -0 -0 -0 -0
0 0 0 0 0 0 0 0 0 0 0 0 0 0 0 0 0 0 0 0 0 -0 -0 0 0 0 0 0 0 0 0 0 0 0 0 0 0 -0 -0 -0 -0 -0 -0 -0 -0 -0 -0 -0 -0
0 0 0 0 0 0 0 0 0 0 0 0 0 0 0 0 0 0 0 0 0 -0 -0 0 0 0 0 0 0 0 0 0 0 0 0 0 0 0 0 0 -0 -0 -0 -0 -0 -0 -0 0 0
0 0 0 0 0 0 0 0 0 0 0 0 0 0 0 0 0 0 0 0 0 0 0 0 0 0 0 0 0 0 0 0 0 0 0 0 0 0 0 0 0 -0 0 -0 -0 0 0 0 0
0 0 0 0 0 0 0 0 0 0 0 0 0 0 0 0 0 0 0 0 0 0 0 0 0 0 0 0 0 0 0 0 0 0 0 0 0 0 0 0 0 0 0 0 0 0 0 0 0
0 0 0 -0 -0 0 0 0 0 0 0 0 0 0 0 0 0 0 0 0 0 0 0 0 0 0 0 0 0 0 0 0 0 0 0 0 0 0 0 0 -0 0 0 0 0 0 0 0 0
0 0 -0 0 0 0 0 0 0 0 0 0 0 0 0 0 0 0 0 0 0 0 0 0 0 0 0 0 0 0 0 0 0 0 0 0 0 0 0 0 0 0 0 0 0 0 0 0 0
0 0 0 0 0 0 0 0 0 0 0 0 0 0 0 0 0 0 0 0 0 0 0 0 0 0 0 0 0 0 0 0 0 0 0 0 0 0 0 0 0 0 0 0 0 0 0 0 0
0 0 0 0 0 0 0 0 0 0 0 0 0 0 0 0 0 0 0 0 0 0 0 0 0 0 0 0 0 0 0 0 0 0 0 0 0 0 0 0 0 0 0 0 0 0 0 0 0
0 0 0 0 0 0 0 0 0 0 0 0 0 0 0 0 0 0 0 0 0 1 1 0 0 0 0 1 0 0 0 0 0 0 0 0 0 0 0 0 0 0 0 0 0 0 0 0 0
0 0 0 0 0 0 0 0 0 0 0 0 0 0 0 0 0 0 0 1 1 1 1 0 0 2 0 0 0 0 0 0 0 0 0 0 0 0 0 0 0 0 0 0 0 0 0 0 0
0 0 0 0 0 0 0 0 0 0 0 0 0 0 0 0 0 0 0 0 1 1 1 1 2 1 1 1 1 0 0 0 0 0 0 0 0 1 0 0 0 0 0 0 0 0 0 0 0
0 0 0 0 0 0 0 0 0 -0 -0 0 0 0 0 0 0 0 0 0 0 1 2 3 1 1 1 1 1 1 0 0 0 0 0 0 0 0 0 0 0 0 0 0 0 0 0 0 0
0 0 0 0 0 0 0 0 0 0 0 0 0 0 0 0 0 0 0 0 0 0 2 4 3 1 2 2 1 1 1 0 0 0 0 0 0 0 0 0 0 0 0 0 0 0 0 0 0
0 0 0 0 0 0 0 0 0 0 0 0 0 0 0 0 0 0 0 0 0 0 2 5 5 4 4 3 3 1 1 0 0 0 0 1 0 0 0 0 0 0 0 0 0 0 0 0 0
0 0 0 0 0 0 0 0 0 0 0 0 0 0 0 0 0 0 0 0 0 0 4 5 6 6 8 5 2 2 1 1 1 0 1 1 1 0 1 0 0 0 0 0 1 0 0 0 3
0 0 0 0 0 0 0 0 0 0 0 0 0 0 0 0 0 0 0 0 0 0 5 6 6 7 8 6 4 2 1 1 1 1 2 1 1 1 1 1 0 1 0 1 1 1 1 3 4
0 0 0 0 0 0 0 0 0 0 0 0 0 0 0 0 0 0 0 0 0 0 6 5 7 6 7 6 5 4 3 3 2 2 3 3 2 1 1 0 1 2 1 0 1 1 3 5 3
-0 0 0 0 0 0 0 0 0 0 0 0 0 0 0 0 0 0 0 0 0 0 1 2 8 7 8 8 6 4 4 2 1 1 1 1 1 1 1 1 1 3 1 2 1 5 5 4 2
0 0 0 0 0 0 0 0 0 0 0 0 0 0 0 0 0 0 0 0 0 0 0 3 7 8 6 6 7 7 4 3 2 1 2 2 2 1 1 2 2 4 1 5 3 2 2 0 0
0 0 0 0 0 0 0 0 0 0 0 0 0 0 0 0 0 0 0 0 0 0 0 2 6 8 6 6 5 7 5 4 2 2 4 2 1 1 2 1 3 3 4 5 3 2 1 1 0
0 0 0 0 0 0 0 0 0 0 0 0 0 0 0 0 0 0 0 0 0 0 0 0 4 7 7 7 7 8 7 7 5 4 3 2 2 1 2 2 3 5 4 3 2 2 1 0 0
-0 0 0 0 0 0 0 0 0 0 -0 0 0 0 0 0 0 0 0 0 0 0 0 0 2 5 4 8 8 7 7 6 5 4 3 3 3 3 4 3 5 3 2 2 1 1 0 0 0
-0 0 0 0 0 0 0 0 0 0 0 0 0 0 0 0 0 0 0 0 0 0 0 0 1 4 5 6 10 7 8 7 5 4 6 4 4 4 3 4 4 3 1 1 1 1 1 1 0
0 -0 -0 0 0 0 0 -0 -0 0 0 0 0 0 0 0 0 0 0 0 0 0 0 0 0 2 4 6 9 9 8 9 9 8 7 4 7 6 5 5 4 2 1 1 1 1 1 1 0
0 -0 -0 0 0 0 -0 0 -0 0 0 0 0 0 0 0 0 0 0 0 0 0 0 0 0 1 3 5 7 6 8 10 9 6 4 8 10 7 5 3 2 1 1 1 2 2 1 0 0
-0 -0 -0 -0 0 0 -0 -0 0 0 0 0 0 0 0 0 0 0 0 0 0 0 0 0 0 0 1 3 4 3 3 4 3 4 6 17 8 6 3 2 1 1 1 1 1 1 0 0 0
Wind_Speed_500mb
16 10 9 16 16 16 36 41 41 9 4 13 8 14 19 29 24 10 14 14 33 47 59 61 59 55 50 48 48 49 46 40 34 30 28 28 30 33 36 38 40 41 39 34 31 29 25 22 23
8 14 16 23 20 30 32 43 29 21 16 9 13 16 16 5 10 16 17 22 39 48 61 62 60 55 50 47 48 51 48 42 36 31 29 28 30 35 36 38 41 40 36 33 28 23 22 20 20
16 20 25 12 33 37 37 37 39 29 18 13 12 6 10 9 8 10 13 33 44 43 55 60 58 55 50 48 49 52 51 46 40 34 30 29 31 37 38 39 39 37 37 33 27 21 19 20 20
14 19 26 26 46 46 52 48 12 10 22 18 19 11 7 6 5 5 19 35 43 40 49 54 57 54 52 48 50 54 52 48 42 35 31 29 31 38 40 38 37 35 33 32 26 20 19 21 20
28 28 26 37 54 54 44 47 49 27 36 35 26 27 10 13 5 12 23 39 40 43 46 53 57 55 51 48 49 55 53 48 43 36 31 31 34 39 40 39 36 33 33 30 25 20 20 21 20
30 34 31 40 54 52 52 64 41 34 35 28 22 24 21 14 9 13 27 40 37 44 47 56 58 54 50 48 50 57 54 49 43 36 32 32 37 41 40 38 37 32 32 29 25 22 21 21 20
39 30 41 50 50 51 51 58 50 36 47 45 42 25 9 11 14 19 31 37 41 44 45 58 60 56 51 50 52 55 53 49 43 37 34 36 40 40 37 36 34 31 29 27 24 23 22 21 20
52 31 55 49 44 56 48 49 55 50 46 49 46 34 27 29 28 24 32 37 43 45 43 54 60 59 56 53 55 54 52 48 43 39 36 38 39 38 36 33 32 29 27 26 25 24 23 22 21
42 34 43 61 56 43 49 42 51 42 38 50 52 46 15 13 23 29 35 40 43 43 44 49 53 53 51 52 58 56 52 49 45 42 40 40 39 38 35 32 30 29 29 28 26 25 24 22 20
43 32 66 49 45 45 47 35 34 44 42 43 45 40 17 21 27 31 38 46 47 47 46 49 52 52 51 45 53 59 58 54 50 47 47 42 29 32 26 32 31 30 31 29 29 28 25 22 16
56 56 47 47 59 38 46 40 41 33 40 34 47 49 35 30 32 36 38 43 49 48 49 51 54 58 52 48 46 47 47 49 51 46 51 38 31 29 28 29 33 33 31 29 29 29 26 18 12
57 64 59 59 71 52 35 47 48 53 45 44 43 42 48 45 38 39 42 42 48 53 53 54 54 57 57 49 46 48 46 46 46 46 51 43 37 35 32 25 26 26 26 21 22 18 17 18 21
57 52 67 68 53 59 54 44 46 52 54 44 50 41 44 27 37 38 40 42 47 55 56 56 57 60 63 56 47 48 49 49 46 48 48 41 39 37 35 29 26 23 23 21 20 18 20 22 19
56 51 51 65 62 61 44 48 54 67 57 55 50 54 54 51 45 40 43 41 47 55 60 59 59 63 64 62 53 53 51 48 47 46 46 51 43 41 35 34 29 25 25 22 21 20 20 17 15
62 52 51 47 50 51 57 55 61 64 57 56 62 68 63 62 60 59 50 45 44 54 59 64 63 62 66 67 57 53 48 45 46 44 50 54 49 43 35 30 28 26 25 23 22 20 18 15 15
47 45 48 50 55 54 47 73 48 60 79 78 72 59 57 71 76 73 65 55 48 50 60 67 65 65 66 66 61 55 46 44 43 43 44 52 51 41 46 31 27 26 25 22 19 18 16 15 15
39 50 57 55 53 52 60 73 48 59 44 40 62 72 75 67 57 68 71 69 62 57 55 68 72 68 68 67 58 55 52 49 44 43 41 46 44 42 38 32 28 30 25 22 20 18 17 16 16
45 49 52 54 47 50 51 49 43 60 35 36 37 43 50 67 70 54 58 63 60 63 67 65 78 78 77 69 66 56 53 52 47 45 43 45 46 45 47 33 31 34 25 23 21 20 14 16 17
53 58 64 52 42 35 46 42 41 43 52 37 38 42 39 38 45 58 59 58 57 68 71 73 77 87 78 84 77 69 65 57 53 48 49 45 46 46 46 32 35 33 27 25 24 18 17 12 15
42 50 55 50 50 48 48 47 45 41 44 50 44 46 52 53 49 48 53 52 50 55 69 74 76 86 88 88 81 71 65 57 53 55 57 57 51 52 51 43 35 31 25 27 23 19 17 16 26
43 50 45 51 52 53 55 58 55 51 58 70 71 70 66 67 59 56 55 52 49 58 66 67 80 88 97 86 80 70 63 58 58 56 57 65 58 55 51 45 40 37 30 24 25 25 22 23 14
35 38 45 45 40 36 49 44 50 50 54 57 69 78 73 72 74 66 62 63 58 59 60 63 72 86 95 95 83 80 74 71 65 57 58 60 62 59 50 46 46 38 27 29 22 36 36 34 29
44 44 40 34 39 44 57 34 39 48 45 45 41 54 82 82 80 79 73 66 65 55 60 65 70 82 90 96 83 87 77 66 61 54 57 52 53 53 49 48 45 47 37 43 46 47 41 36 27
36 41 43 40 30 25 45 43 44 43 53 41 45 58 62 60 66 76 78 73 71 63 64 67 71 72 88 88 95 84 87 67 64 64 61 56 47 54 56 53 56 51 51 62 60 46 41 26 18
19 29 22 22 29 33 37 43 44 43 48 45 34 40 51 49 57 65 73 77 75 74 66 70 73 77 81 91 91 79 82 75 69 74 69 61 57 59 65 62 58 59 61 61 47 45 34 21 22
41 18 15 22 29 28 19 25 44 56 52 53 51 45 32 35 39 55 66 71 74 73 72 73 75 75 71 89 94 95 86 88 74 79 82 68 67 62 63 64 63 58 61 52 41 34 27 29 33
24 35 31 35 41 30 18 24 45 45 16 15 17 30 46 46 33 44 56 58 64 72 70 72 73 72 76 81 99 98 99 95 91 86 86 75 65 65 64 68 60 63 55 45 37 31 35 44 39
17 35 16 15 20 32 25 39 30 37 35 28 17 32 34 37 41 33 34 40 47 55 61 71 72 74 74 80 95 98 100 96 89 84 88 72 66 66 67 68 62 57 51 41 38 40 44 41 25
15 23 23 22 17 8 21 8 30 12 16 16 14 27 12 10 18 24 35 36 37 40 54 59 72 75 71 80 92 95 85 87 89 97 88 69 77 70 69 65 66 60 50 45 49 38 41 37 33
8 14 10 11 20 26 33 26 13 37 14 29 16 17 15 17 18 21 18 27 38 44 47 48 57 71 71 70 74 91 79 60 60 61 70 87 71 73 64 60 61 57 51 51 53 45 38 39 35
Wind_Direction_500mb
261 288 272 249 246 228 251 239 250 195 204 226 39 289 353 338 341 47 134 153 161 165 175 173 171 172 175 176 179 178 176 175 169 162 153 151 156 160 160 159 158 158 157 155 150 149 147 144 141
214 236 229 263 241 247 239 239 231 236 201 90 261 250 232 289 55 102 126 153 162 167 174 176 175 174 177 179 183 183 181 179 176 169 160 157 161 163 163 163 163 165 165 165 159 154 155 155 150
183 215 253 229 235 244 250 232 232 204 141 221 264 241 344 65 93 113 128 154 160 166 171 179 177 176 178 180 185 188 185 183 182 175 168 165 166 167 166 167 169 172 176 176 174 170 167 166 162
206 215 248 252 243 231 248 264 47 272 232 214 248 259 168 94 106 136 147 159 165 166 169 180 178 177 179 180 185 189 190 188 186 182 177 172 172 172 172 173 174 177 179 181 183 182 178 176 172
218 248 239 235 242 252 252 236 267 211 256 213 213 253 213 139 154 158 157 162 166 168 171 177 178 178 179 180 184 189 191 191 191 188 184 179 178 178 179 181 182 182 183 184 186 191 187 180 179
221 233 240 242 244 242 245 258 247 258 235 233 214 231 255 127 148 173 166 168 168 168 175 180 178 180 180 181 185 188 190 193 195 194 192 187 184 183 183 187 190 191 189 191 195 193 190 188 189
232 227 242 248 256 250 240 237 252 222 250 243 244 242 225 178 178 170 170 172 169 171 176 178 178 181 181 182 187 191 193 196 198 199 197 189 187 185 186 190 194 195 195 196 195 194 194 198 204
231 249 257 248 253 258 259 249 233 238 254 249 253 248 247 188 158 165 172 174 174 174 178 174 178 181 182 183 189 194 198 199 201 204 199 191 188 187 189 190 193 194 194 196 197 199 202 207 215
225 246 244 243 247 250 253 256 253 245 251 249 248 245 231 146 158 166 176 180 179 179 180 176 176 180 179 187 190 194 200 204 205 205 200 191 190 191 193 194 194 197 198 200 205 207 211 217 227
223 229 240 249 256 259 264 245 256 261 232 236 247 231 186 186 183 179 184 187 186 183 183 182 180 180 178 186 193 194 200 202 203 203 196 191 186 189 193 209 195 202 204 205 211 217 219 222 232
224 239 255 252 257 274 286 270 250 238 249 231 237 227 211 213 207 204 196 196 194 191 188 187 183 185 179 183 191 186 192 197 195 193 194 179 192 184 187 211 204 205 208 212 218 222 224 228 227
237 242 247 258 271 273 249 271 267 260 243 250 250 239 228 203 216 213 208 202 198 195 193 188 186 188 179 184 187 186 189 188 186 188 196 178 189 198 184 201 196 197 213 202 228 222 224 230 243
241 250 253 257 261 263 267 253 256 259 254 249 250 245 239 218 217 216 218 212 205 199 197 194 190 190 181 186 188 187 189 188 187 190 195 186 190 202 185 198 195 198 211 203 216 209 236 238 246
270 266 264 252 255 264 248 259 252 249 252 256 247 241 237 226 223 227 215 215 208 203 199 197 195 196 185 184 192 188 187 192 189 193 197 188 190 212 195 198 192 204 204 207 212 222 231 246 253
265 267 265 258 255 259 259 260 249 253 250 243 237 238 237 232 234 231 222 214 212 207 202 198 197 198 189 191 191 190 193 192 191 195 202 192 192 214 188 198 198 205 207 205 213 222 236 234 264
275 262 257 246 242 241 234 254 247 241 232 235 239 233 233 231 235 231 226 221 216 214 204 199 201 201 197 196 194 191 195 193 194 197 201 200 198 206 192 202 204 208 209 215 217 229 239 253 267
251 257 257 257 241 245 225 249 249 256 239 245 226 235 236 236 236 230 227 224 217 213 210 202 200 203 206 199 197 195 196 193 197 197 201 208 200 198 204 200 210 207 212 215 220 232 241 255 268
261 247 244 254 254 257 238 245 262 249 263 236 234 241 240 230 232 227 224 224 219 215 207 205 206 202 209 200 195 200 200 197 199 200 201 218 196 200 214 202 203 217 211 218 223 226 235 254 264
294 260 271 280 287 250 261 249 241 243 240 224 224 237 243 240 237 231 226 220 221 220 205 204 203 203 201 200 198 199 201 201 199 201 199 208 199 199 216 195 211 215 203 204 230 216 228 232 252
299 291 283 269 269 272 270 266 264 265 268 268 251 236 245 245 235 234 227 219 215 222 204 203 205 202 201 200 199 201 199 204 201 201 203 199 206 199 211 196 214 220 209 209 196 201 196 211 242
285 288 287 281 277 259 255 252 249 251 255 254 252 249 245 246 241 231 228 223 223 225 206 203 205 206 204 200 200 199 200 200 200 199 200 204 204 201 205 210 195 222 197 217 213 204 205 212 207
259 255 271 312 298 280 251 259 250 236 240 242 243 245 241 235 240 241 231 225 222 220 213 207 208 208 207 202 199 199 194 200 203 204 210 211 212 210 210 208 192 205 198 202 214 202 207 201 190
288 275 273 281 262 271 265 256 250 255 255 242 246 241 231 232 233 236 231 229 221 218 218 207 210 210 208 206 199 200 198 201 198 197 199 194 199 194 196 194 198 201 194 194 204 209 211 212 225
280 278 276 269 260 252 248 254 258 245 238 245 244 243 243 236 231 231 230 226 221 217 214 209 203 215 211 208 203 203 200 196 194 192 190 188 194 192 189 197 199 208 191 208 210 211 212 212 245
306 261 256 266 249 256 252 231 243 256 257 252 244 248 231 235 227 228 229 224 219 215 214 212 205 208 210 209 210 204 202 191 196 190 188 188 190 190 193 195 192 196 199 208 209 211 220 223 242
307 209 265 255 253 266 272 272 239 241 243 253 251 244 249 242 235 228 226 222 220 218 209 212 206 205 208 210 210 208 203 197 194 193 194 189 187 187 194 190 196 198 202 204 205 209 233 227 200
308 297 289 284 277 267 245 288 282 254 253 213 247 258 242 240 246 239 224 224 219 218 210 209 212 203 207 208 212 211 207 197 191 197 192 185 183 185 194 189 196 202 202 206 209 213 211 204 195
256 294 288 229 258 253 260 235 221 232 210 205 246 217 234 225 225 236 236 217 219 222 215 206 216 208 207 210 211 212 208 197 191 196 185 178 176 185 190 191 197 198 200 203 199 204 208 198 203
323 261 207 246 263 270 277 352 14 105 309 90 51 40 34 213 232 225 235 238 221 225 220 205 213 209 205 210 210 207 208 188 190 196 182 177 180 194 194 191 194 193 196 199 187 185 197 201 212
183 294 284 280 264 286 295 262 307 320 87 98 321 96 64 359 347 289 282 243 226 225 224 223 213 212 209 213 208 213 221 219 195 184 174 184 188 196 188 181 183 184 188 193 195 199 197 205 211
Wind_Speed_850mb
16 10 9 16 16 16 36 41 41 9 4 13 8 14 19 29 24 10 14 14 33 47 59 61 59 55 50 48 48 49 46 40 34 30 28 28 30 33 36 38 40 41 39 34 31 29 25 22 23
8 14 16 23 20 30 32 43 29 21 16 9 13 16 16 5 10 16 17 22 39 48 61 62 60 55 50 47 48 51 48 42 36 31 29 28 30 35 36 38 41 40 36 33 28 23 22 20 20
16 20 25 12 33 37 37 37 39 29 18 13 12 6 10 9 8 10 13 33 44 43 55 60 58 55 50 48 49 52 51 46 40 34 30 29 31 37 38 39 39 37 37 33 27 21 19 20 20
14 19 26 26 46 46 52 48 12 10 22 18 19 11 7 6 5 5 19 35 43 40 49 54 57 54 52 48 50 54 52 48 42 35 31 29 31 38 40 38 37 35 33 32 26 20 19 21 20
28 28 26 37 54 54 44 47 49 27 36 35 26 27 10 13 5 12 23 39 40 43 46 53 57 55 51 48 49 55 53 48 43 36 31 31 34 39 40 39 36 33 33 30 25 20 20 21 20
30 34 31 40 54 52 52 64 41 34 35 28 22 24 21 14 9 13 27 40 37 44 47 56 58 54 50 48 50 57 54 49 43 36 32 32 37 41 40 38 37 32 32 29 25 22 21 21 20
39 30 41 50 50 51 51 58 50 36 47 45 42 25 9 11 14 19 31 37 41 44 45 58 60 56 51 50 52 55 53 49 43 37 34 36 40 40 37 36 34 31 29 27 24 23 22 21 20
52 31 55 49 44 56 48 49 55 50 46 49 46 34 27 29 28 24 32 37 43 45 43 54 60 59 56 53 55 54 52 48 43 39 36 38 39 38 36 33 32 29 27 26 25 24 23 22 21
42 34 43 61 56 43 49 42 51 42 38 50 52 46 15 13 23 29 35 40 43 43 44 49 53 53 51 52 58 56 52 49 45 42 40 40 39 38 35 32 30 29 29 28 26 25 24 22 20
43 32 66 49 45 45 47 35 34 44 42 43 45 40 17 21 27 31 38 46 47 47 46 49 52 52 51 45 53 59 58 54 50 47 47 42 29 32 26 32 31 30 31 29 29 28 25 22 16
56 56 47 47 59 38 46 40 41 33 40 34 47 49 35 30 32 36 38 43 49 48 49 51 54 58 52 48 46 47 47 49 51 46 51 38 31 29 28 29 33 33 31 29 29 29 26 18 12
57 64 59 59 71 52 35 47 48 53 45 44 43 42 48 45 38 39 42 42 48 53 53 54 54 57 57 49 46 48 46 46 46 46 51 43 37 35 32 25 26 26 26 21 22 18 17 18 21
57 52 67 68 53 59 54 44 46 52 54 44 50 41 44 27 37 38 40 42 47 55 56 56 57 60 63 56 47 48 49 49 46 48 48 41 39 37 35 29 26 23 23 21 20 18 20 22 19
56 51 51 65 62 61 44 48 54 67 57 55 50 54 54 51 45 40 43 41 47 55 60 59 59 63 64 62 53 53 51 48 47 46 46 51 43 41 35 34 29 25 25 22 21 20 20 17 15
62 52 51 47 50 51 57 55 61 64 57 56 62 68 63 62 60 59 50 45 44 54 59 64 63 62 66 67 57 53 48 45 46 44 50 54 49 43 35 30 28 26 25 23 22 20 18 15 15
47 45 48 50 55 54 47 73 48 60 79 78 72 59 57 71 76 73 65 55 48 50 60 67 65 65 66 66 61 55 46 44 43 43 44 52 51 41 46 31 27 26 25 22 19 18 16 15 15
39 50 57 55 53 52 60 73 48 59 44 40 62 72 75 67 57 68 71 69 62 57 55 68 72 68 68 67 58 55 52 49 44 43 41 46 44 42 38 32 28 30 25 22 20 18 17 16 16
45 49 52 54 47 50 51 49 43 60 35 36 37 43 50 67 70 54 58 63 60 63 67 65 78 78 77 69 66 56 53 52 47 45 43 45 46 45 47 33 31 34 25 23 21 20 14 16 17
53 58 64 52 42 35 46 42 41 43 52 37 38 42 39 38 45 58 59 58 57 68 71 73 77 87 78 84 77 69 65 57 53 48 49 45 46 46 46 32 35 33 27 25 24 18 17 12 15
42 50 55 50 50 48 48 47 45 41 44 50 44 46 52 53 49 48 53 52 50 55 69 74 76 86 88 88 81 71 65 57 53 55 57 57 51 52 51 43 35 31 25 27 23 19 17 16 26
43 50 45 51 52 53 55 58 55 51 58 70 71 70 66 67 59 56 55 52 49 58 66 67 80 88 97 86 80 70 63 58 58 56 57 65 58 55 51 45 40 37 30 24 25 25 22 23 14
35 38 45 45 40 36 49 44 50 50 54 57 69 78 73 72 74 66 62 63 58 59 60 63 72 86 95 95 83 80 74 71 65 57 58 60 62 59 50 46 46 38 27 29 22 36 36 34 29
44 44 40 34 39 44 57 34 39 48 45 45 41 54 82 82 80 79 73 66 65 55 60 65 70 82 90 96 83 87 77 66 61 54 57 52 53 53 49 48 45 47 37 43 46 47 41 36 27
36 41 43 40 30 25 45 43 44 43 53 41 45 58 62 60 66 76 78 73 71 63 64 67 71 72 88 88 95 84 87 67 64 64 61 56 47 54 56 53 56 51 51 62 60 46 41 26 18
19 29 22 22 29 33 37 43 44 43 48 45 34 40 51 49 57 65 73 77 75 74 66 70 73 77 81 91 91 79 82 75 69 74 69 61 57 59 65 62 58 59 61 61 47 45 34 21 22
41 18 15 22 29 28 19 25 44 56 52 53 51 45 32 35 39 55 66 71 74 73 72 73 75 75 71 89 94 95 86 88 74 79 82 68 67 62 63 64 63 58 61 52 41 34 27 29 33
24 35 31 35 41 30 18 24 45 45 16 15 17 30 46 46 33 44 56 58 64 72 70 72 73 72 76 81 99 98 99 95 91 86 86 75 65 65 64 68 60 63 55 45 37 31 35 44 39
17 35 16 15 20 32 25 39 30 37 35 28 17 32 34 37 41 33 34 40 47 55 61 71 72 74 74 80 95 98 100 96 89 84 88 72 66 66 67 68 62 57 51 41 38 40 44 41 25
15 23 23 22 17 8 21 8 30 12 16 16 14 27 12 10 18 24 35 36 37 40 54 59 72 75 71 80 92 95 85 87 89 97 88 69 77 70 69 65 66 60 50 45 49 38 41 37 33
8 14 10 11 20 26 33 26 13 37 14 29 16 17 15 17 18 21 18 27 38 44 47 48 57 71 71 70 74 91 79 60 60 61 70 87 71 73 64 60 61 57 51 51 53 45 38 39 35
Wind_Direction_850mb
261 288 272 249 246 228 251 239 250 195 204 226 39 289 353 338 341 47 134 153 161 165 175 173 171 172 175 176 179 178 176 175 169 162 153 151 156 160 160 159 158 158 157 155 150 149 147 144 141
214 236 229 263 241 247 239 239 231 236 201 90 261 250 232 289 55 102 126 153 162 167 174 176 175 174 177 179 183 183 181 179 176 169 160 157 161 163 163 163 163 165 165 165 159 154 155 155 150
183 215 253 229 235 244 250 232 232 204 141 221 264 241 344 65 93 113 128 154 160 166 171 179 177 176 178 180 185 188 185 183 182 175 168 165 166 167 166 167 169 172 176 176 174 170 167 166 162
206 215 248 252 243 231 248 264 47 272 232 214 248 259 168 94 106 136 147 159 165 166 169 180 178 177 179 180 185 189 190 188 186 182 177 172 172 172 172 173 174 177 179 181 183 182 178 176 172
218 248 239 235 242 252 252 236 267 211 256 213 213 253 213 139 154 158 157 162 166 168 171 177 178 178 179 180 184 189 191 191 191 188 184 179 178 178 179 181 182 182 183 184 186 191 187 180 179
221 233 240 242 244 242 245 258 247 258 235 233 214 231 255 127 148 173 166 168 168 168 175 180 178 180 180 181 185 188 190 193 195 194 192 187 184 183 183 187 190 191 189 191 195 193 190 188 189
232 227 242 248 256 250 240 237 252 222 250 243 244 242 225 178 178 170 170 172 169 171 176 178 178 181 181 182 187 191 193 196 198 199 197 189 187 185 186 190 194 195 195 196 195 194 194 198 204
231 249 257 248 253 258 259 249 233 238 254 249 253 248 247 188 158 165 172 174 174 174 178 174 178 181 182 183 189 194 198 199 201 204 199 191 188 187 189 190 193 194 194 196 197 199 202 207 215
225 246 244 243 247 250 253 256 253 245 251 249 248 245 231 146 158 166 176 180 179 179 180 176 176 180 179 187 190 194 200 204 205 205 200 191 190 191 193 194 194 197 198 200 205 207 211 217 227
223 229 240 249 256 259 264 245 256 261 232 236 247 231 186 186 183 179 184 187 186 183 183 182 180 180 178 186 193 194 200 202 203 203 196 191 186 189 193 209 195 202 204 205 211 217 219 222 232
224 239 255 252 257 274 286 270 250 238 249 231 237 227 211 213 207 204 196 196 194 191 188 187 183 185 179 183 191 186 192 197 195 193 194 179 192 184 187 211 204 205 208 212 218 222 224 228 227
237 242 247 258 271 273 249 271 267 260 243 250 250 239 228 203 216 213 208 202 198 195 193 188 186 188 179 184 187 186 189 188 186 188 196 178 189 198 184 201 196 197 213 202 228 222 224 230 243
241 250 253 257 261 263 267 253 256 259 254 249 250 245 239 218 217 216 218 212 205 199 197 194 190 190 181 186 188 187 189 188 187 190 195 186 190 202 185 198 195 198 211 203 216 209 236 238 246
270 266 264 252 255 264 248 259 252 249 252 256 247 241 237 226 223 227 215 215 208 203 199 197 195 196 185 184 192 188 187 192 189 193 197 188 190 212 195 198 192 204 204 207 212 222 231 246 253
265 267 265 258 255 259 259 260 249 253 250 243 237 238 237 232 234 231 222 214 212 207 202 198 197 198 189 191 191 190 193 192 191 195 202 192 192 214 188 198 198 205 207 205 213 222 236 234 264
275 262 257 246 242 241 234 254 247 241 232 235 239 233 233 231 235 231 226 221 216 214 204 199 201 201 197 196 194 191 195 193 194 197 201 200 198 206 192 202 204 208 209 215 217 229 239 253 267
251 257 257 257 241 245 225 249 249 256 239 245 226 235 236 236 236 230 227 224 217 213 210 202 200 203 206 199 197 195 196 193 197 197 201 208 200 198 204 200 210 207 212 215 220 232 241 255 268
261 247 244 254 254 257 238 245 262 249 263 236 234 241 240 230 232 227 224 224 219 215 207 205 206 202 209 200 195 200 200 197 199 200 201 218 196 200 214 202 203 217 211 218 223 226 235 254 264
294 260 271 280 287 250 261 249 241 243 240 224 224 237 243 240 237 231 226 220 221 220 205 204 203 203 201 200 198 199 201 201 199 201 199 208 199 199 216 195 211 215 203 204 230 216 228 232 252
299 291 283 269 269 272 270 266 264 265 268 268 251 236 245 245 235 234 227 219 215 222 204 203 205 202 201 200 199 201 199 204 201 201 203 199 206 199 211 196 214 220 209 209 196 201 196 211 242
285 288 287 281 277 259 255 252 249 251 255 254 252 249 245 246 241 231 228 223 223 225 206 203 205 206 204 200 200 199 200 200 200 199 200 204 204 201 205 210 195 222 197 217 213 204 205 212 207
259 255 271 312 298 280 251 259 250 236 240 242 243 245 241 235 240 241 231 225 222 220 213 207 208 208 207 202 199 199 194 200 203 204 210 211 212 210 210 208 192 205 198 202 214 202 207 201 190
288 275 273 281 262 271 265 256 250 255 255 242 246 241 231 232 233 236 231 229 221 218 218 207 210 210 208 206 199 200 198 201 198 197 199 194 199 194 196 194 198 201 194 194 204 209 211 212 225
280 278 276 269 260 252 248 254 258 245 238 245 244 243 243 236 231 231 230 226 221 217 214 209 203 215 211 208 203 203 200 196 194 192 190 188 194 192 189 197 199 208 191 208 210 211 212 212 245
306 261 256 266 249 256 252 231 243 256 257 252 244 248 231 235 227 228 229 224 219 215 214 212 205 208 210 209 210 204 202 191 196 190 188 188 190 190 193 195 192 196 199 208 209 211 220 223 242
307 209 265 255 253 266 272 272 239 241 243 253 251 244 249 242 235 228 226 222 220 218 209 212 206 205 208 210 210 208 203 197 194 193 194 189 187 187 194 190 196 198 202 204 205 209 233 227 200
308 297 289 284 277 267 245 288 282 254 253 213 247 258 242 240 246 239 224 224 219 218 210 209 212 203 207 208 212 211 207 197 191 197 192 185 183 185 194 189 196 202 202 206 209 213 211 204 195
256 294 288 229 258 253 260 235 221 232 210 205 246 217 234 225 225 236 236 217 219 222 215 206 216 208 207 210 211 212 208 197 191 196 185 178 176 185 190 191 197 198 200 203 199 204 208 198 203
323 261 207 246 263 270 277 352 14 105 309 90 51 40 34 213 232 225 235 238 221 225 220 205 213 209 205 210 210 207 208 188 190 196 182 177 180 194 194 191 194 193 196 199 187 185 197 201 212
183 294 284 280 264 286 295 262 307 320 87 98 321 96 64 359 347 289 282 243 226 225 224 223 213 212 209 213 208 213 221 219 195 184 174 184 188 196 188 181 183 184 188 193 195 199 197 205 211